Regional Weather Roundup
Issued by NWS

Home | Current Version | Previous Version | Graphics & Text | Print | Product List | Glossary Off
Versions: 1 2 3 4 5 6 7 8 9 10 11 12 13 14 15 16 17 18 19 20 21 22 23 24 25 26 27 28 29 30 31 32 33 34 35 36 37 38 39 40 41 42 43 44 45 46 47 48 49 50

000
ASUS43 KMKX 231000
RWRWI

WISCONSIN REGIONAL WEATHER ROUNDUP
NATIONAL WEATHER SERVICE MILWAUKEE/SULLIVAN WI
500 AM CDT FRI JUN 23 2017

NOTE: "FAIR" INDICATES FEW OR NO CLOUDS BELOW 12,000 FEET WITH NO
SIGNIFICANT WEATHER AND/OR OBSTRUCTIONS TO VISIBILITY.

WIZ001-002-006>008-014>016-023>028-231100-
NORTHWEST WISCONSIN

CITY           SKY/WX    TMP DP  RH WIND       PRES   REMARKS
SUPERIOR ARPT  NOT AVBL
ASHLAND        CLEAR     52  50  93 SW8       29.64R
HAYWARD        PTCLDY    47  45  93 CALM      29.68S FOG
SIREN          CLEAR     56  51  84 CALM      29.69R
CUMBERLAND     CLEAR     52  50  93 CALM      29.70S
RICE LAKE      CLEAR     54  53  95 CALM      29.71S FOG
CHETEK         CLEAR     53  53 100 CALM      29.70F FOG
LADYSMITH      FOG       50  49  97 CALM      29.71S VSB 1/2
EAU CLAIRE     CLEAR     58  57  97 CALM      29.69F FOG
MENOMONIE      CLEAR     57  56  95 W3        29.71S
NEW RICHMOND   CLEAR     54  53  97 W3        29.71F
OSCEOLA        CLEAR     53  53 100 CALM      29.73S
$$

WIZ003>005-009-010-017-018-231100-
NORTH CENTRAL WISCONSIN

CITY           SKY/WX    TMP DP  RH WIND       PRES   REMARKS
MANITOWISH WTR FOG       47  47 100 CALM      29.67S VSB 1/4
ARBOR VITAE      N/A     52  51  97 CALM      29.68R FOG
WOODRUFF         N/A     52  51  97 CALM      29.68R FOG
RHINELANDER    FOG       49  49 100 W7        29.69S VSB 1/4
EAGLE RIVER    FOG       48  48 100 CALM      29.68R VSB 1/4
LAND O LAKES   FOG       48  48 100 CALM      29.69S VSB 1/4
PHILLIPS       CLEAR     54  54 100 CALM      29.68S
TOMAHAWK       NOT AVBL
MEDFORD        CLEAR     55  55  97 W3        29.69F
MERRILL        CLEAR     56  56 100 NW3       29.69F
$$

WIZ029-030-035-036-043>047-231100-
CENTRAL WISCONSIN

CITY           SKY/WX    TMP DP  RH WIND       PRES   REMARKS
WAUSAU         CLEAR     57  57 100 CALM      29.68S FOG
MOSINEE        FOG       57  57 100 W3        29.70F VSB 1/2
MARSHFIELD     CLEAR     58  57  97 W3        29.70R FOG
STEVENS POINT  CLEAR     60  60 100 CALM      29.69S
WAUPACA        CLOUDY    64  64  98 CALM      29.69R FOG
WAUTOMA        PTCLDY    62  62 100 W3        29.70R FOG
WISC RAPIDS    FOG       62  61  96 CALM      29.71R VSB 3/4
CAMP DOUGLAS   FOG       58  58 100 CALM      29.71S VSB<1/4
$$

WIZ011>013-019>022-031-037>040-048>050-231100-
NORTHEAST WISCONSIN

CITY           SKY/WX    TMP DP  RH WIND       PRES   REMARKS
ANTIGO         CLEAR     56  56 100 NW3       29.69S
SHAWANO        PTCLDY    64  61  93 W3        29.66F
OCONTO         CLOUDY    63  62  95 W3        29.64S
STURGEON BAY     N/A     64  63  96 W6          N/A
GREEN BAY      CLOUDY    64  64 100 W3        29.65F
MANITOWOC      NOT AVBL
APPLETON       CLOUDY    63  63 100 W5        29.67S
CLINTONVILLE   PTCLDY    63  61  94 NW3       29.66F
OSHKOSH        CLOUDY    64  63  96 W5        29.68S
$$

WIZ032>034-041-042-053>061-231100-
SOUTHWEST WISCONSIN

CITY           SKY/WX    TMP DP  RH WIND       PRES   REMARKS
LA CROSSE      FOG       62  62 100 CALM      29.71R VSB 1
SPARTA         FOG       56  56 100 CALM      29.72S VSB 1/2
VIROQUA        MOCLDY    62  62 100 NW3       29.73S VSB 3/4
BOSCOBEL       PTCLDY    60  59  96 CALM      29.73R
PRAIRIE DU CHI MOCLDY    64  63  96 CALM      29.73R
PLATTEVILLE    CLOUDY    65  62  89 NE3       29.74R
$$

WIZ056-057-062-063-064-067-068-231100-
SOUTH CENTRAL WISCONSIN

CITY           SKY/WX    TMP DP  RH WIND       PRES   REMARKS
REEDSBURG      CLOUDY    63  63 100 CALM      29.70F FOG
BARABOO/DELLS  CLOUDY    63  61  94 CALM      29.71S
LONE ROCK      NOT AVBL
MINERAL POINT  CLOUDY    63  63 100 CALM      29.74R
MADISON        CLOUDY    64  61  90 W3        29.71R
MIDDLETON      CLOUDY    65  64  94 N3        29.71R
WATERTOWN      CLOUDY    64  64 100 N3        29.69R
MONROE         CLOUDY    64  63  94 N8        29.72R
JANESVILLE     LGT RAIN  64  64 100 N3        29.69R
$$

WIZ051-052-058>065-066-070>072-231100-
SOUTHEAST WISCONSIN

CITY           SKY/WX    TMP DP  RH WIND       PRES   REMARKS
MILWAUKEE      TSTM      66  65  96 CALM      29.68R FOG
WAUKESHA       CLOUDY    63  63 100 CALM      29.64R
MILWAUKEE/TIMM HVY RAIN  63  61  94 CALM      29.69R
RACINE         TSTM      65  63  93 N8        29.68S FOG
KENOSHA        TSTM      66  64  93 NE7       29.65F
FOND DU LAC    MOCLDY    66  62  87 W5        29.69R
SHEBOYGAN      LGT RAIN  66  66 100 NW5       29.66S
WEST BEND      LGT RAIN  63  63 100 W3        29.69R
JUNEAU         CLOUDY    64  64  97 NW3       29.70S
$$

LSZ147-162-231100-
LAKE SUPERIOR

STATION/POSITION TIME  TEMP    WIND        PRES    WAVE
                       AIR SEA DIR/SP/G            HT/PER
                 (UTC) (F)     (DEG/KT/KT) (MB)    (FT/S)
W MID LAKE BUOY  0850   47 39  220/ 12/ 12 1001.9F   1/ 3
DEVILS ISLAND    0900   59     230/ 14/ 15 1002.2F
SAXON HARBOR     0930   58     190/  7/ 11 1003.0S
$$

LMZ867-665-643>646-231100-
LAKE MICHIGAN

STATION/POSITION TIME  TEMP    WIND        PRES    WAVE
                       AIR SEA DIR/SP/G            HT/PER
                 (UTC) (F)     (DEG/KT/KT) (MB)    (FT/S)
CHAMBERS ISLAND  0940   63     220/  3/  5 1003.4S
S GREEN BAY BUOY 0930   66     300/  8/ 10 1003.9R
N MID LAKE BUOY  0850   59 54  240/  6/  8 1003.8F   1/ 5
NORTHPORT PIER   0940   65     290/  6/ 10 1003.0F
KEWAUNEE LAKESHO 0930   66     280/  7/ 12 1003.9R
SHEBOYGAN LAKESH 0900   64     270/  7/  7 1003.7S
PORT WASHINGTON  0930   65     290/  3/  4 1005.8R
ATWATER BUOY     0809   62 59  340/ 12/ 16 1004.7R
MILWAUKEE LAKESH 0930   63     310/  4/  5   N/A
S MID LAKE BUOY  0850   63 61   20/  8/ 12 1003.5R   2/ 4
KENOSHA   LAKESH 0900   65     330/  6/ 12 1004.1
$$

TC  - TEMPERATURE IN CELSIUS
VSB - VISIBILITY IN STATUTE MILES
WCI - WIND CHILL INDEX
HX  - HEAT INDEX





USA.gov is the U.S. government's official web portal to all federal, state and local government web resources and services.